www.pogodaiklimat.ru

Погода и климат >> Архив погоды >> Норвегия >> Маяк Stromtangen


ПОГОДА на Маяке Stromtangen

  • Прогноз погоды на Маяке Stromtangen
  • Монитор погоды на Маяке Stromtangen

АРХИВ ПОГОДЫ на Маяке Stromtangen

Время (UTC), дата Ветер
(напр.,м/с)
 
Видим.   Явления Облачность Т
(С)
Тd
(С)
f
(%)
Тe
(С)
Тes
(С)
Комфортность P
(гПа)
Po
(гПа)
Тmin
(С)
Tmax
(С)
R
(мм)
R24
(мм)
S
(см)
16 15.03 СВ 4
{5}
н/о н/о +3.0 0 0 984.8 983.5
17 15.03 СВ 4
{5}
н/о н/о +2.8 -0 -0 984.9 983.6
18 15.03 СВ 4
{7}
н/о н/о +2.5 -1 -1 985.4 984.1 +1.1 +3.3 2
19 15.03 СВ 5
{6}
н/о н/о +1.9 -2 -2 985.8 984.5 1
20 15.03 СВ 5
{6}
н/о н/о +1.3 -3 -3 986.4 985.1
21 15.03 СВ 5
{7}
н/о н/о +1.0 -3 -3 987.1 985.8
22 15.03 СВ 5
{6}
н/о н/о +1.0 -3 -3 987.6 986.3
23 15.03 СВ 5
{6}
н/о н/о +1.0 -3 -3 988.3 987.0
00 16.03 СВ 5
{7}
н/о н/о +0.9 -3 -3 989.1 987.8
01 16.03 СВ 3
{5}
н/о н/о +1.0 -2 -2 989.6 988.3
02 16.03 С 2
{4}
н/о н/о +1.0 -1 -1 990.3 989.0
03 16.03 СЗ 2
{3}
н/о н/о +1.2 -1 -1 991.0 989.7
04 16.03 С 1
{3}
н/о н/о +1.1 +1 +1 991.6 990.3
05 16.03 СВ 3
{3}
н/о н/о +1.0 -2 -2 992.0 990.7
06 16.03 В 1
{5}
н/о н/о +1.2 +1 +1 992.6 991.3 +0.9 +2.5 4
07 16.03 ЮЗ 2
{3}
н/о н/о +1.9 0 0 993.1 991.8
08 16.03 З 3
{5}
н/о н/о +2.2 -0 -0 993.6 992.3
09 16.03 З 2
{3}
н/о н/о +2.3 +1 +1 994.4 993.1
10 16.03 З 1
{3}
н/о н/о +2.7 +3 +3 994.8 993.5
11 16.03 В 2
{2}
н/о н/о +2.9 +2 +2 994.6 993.3
12 16.03 В 1
{5}
н/о н/о +3.2 +3 +3 995.0 993.7
13 16.03 СВ 2
{3}
н/о н/о +3.2 +2 +2 995.1 993.8
14 16.03 СВ 2
{2}
н/о н/о +3.3 +2 +2 994.9 993.6
15 16.03 СВ 2
{2}
н/о н/о +3.3 +2 +2 994.4 993.1
16 16.03 СВ 2
{3}
н/о н/о +3.4 +2 +2 994.4 993.1
17 16.03 В 4
{4}
н/о н/о +3.2 993.7 992.4
18 16.03 СВ 4
{5}
н/о н/о +2.8 993.5 992.2 +1.2 +3.6
19 16.03 СВ 4
{5}
н/о н/о +2.6 -1 -1 992.9 991.6
20 16.03 В 4
{5}
н/о н/о +3.3 0 0 991.9 990.6
21 16.03 В 4
{5}
н/о н/о +3.6 +1 +1 991.4 990.1
22 16.03 ЮВ 7
{11}
н/о н/о +3.6 -1 -1 990.4 989.1
23 16.03 В 8
{9}
н/о н/о +3.3 -2 -2 988.8 987.5
00 17.03 В 8
{11}
н/о н/о +2.6 -2 -2 987.3 986.0
01 17.03 В 10
{12}
н/о н/о +2.2 -4 -4 985.0 983.7 1
02 17.03 В 10
{13}
н/о н/о +1.8 -4 -4 982.7 981.4 1
03 17.03 н/о
04 17.03 В 11
{15}
н/о н/о +1.6 -5 -5 977.9 976.6 2
05 17.03 ЮВ 9
{16}
н/о н/о +2.9 -2 -2 976.8 975.5 2
06 17.03 Ю 11
{16}
н/о н/о +5.1 976.9 975.7 +1.5 +5.1 11
07 17.03 Ю 12
{18}
н/о н/о +4.9 -1 -1 976.7 975.5
08 17.03 Ю 14
{21}
н/о н/о +4.6 -1 -1 976.2 975.0
09 17.03 Ю 15
{21}
н/о н/о +4.8 -1 -1 975.4 974.2
10 17.03 Ю 17
{21}
н/о н/о +5.0 -1 -1 974.4 973.2
11 17.03 Ю 18
{24}
н/о н/о +4.8 -2 -2 973.3 972.1
12 17.03 Ю 16
{25}
н/о н/о +4.4 -2 -2 973.0 971.8
13 17.03 Ю 16
{21}
н/о н/о +4.8 -1 -1 972.8 971.6
14 17.03 Ю 15
{20}
н/о н/о +5.2 -1 -1 972.7 971.5
15 17.03 ЮЗ 15
{20}
н/о н/о +5.0 -1 -1 972.7 971.5
16 17.03 ЮЗ 14
{19}
н/о н/о +5.1 -1 -1 972.9 971.7
17 17.03 ЮЗ 13
{17}
н/о н/о +5.1 -1 -1 973.5 972.3
18 17.03 ЮЗ 12
{21}
н/о н/о +5.1 973.9 972.7 +3.8 +5.2 2
19 17.03 ЮЗ 12
{15}
н/о н/о +4.8 -1 -1 974.6 973.4
20 17.03 ЮЗ 9
{13}
н/о н/о +4.5 -0 -0 975.6 974.4
21 17.03 З 5
{9}
н/о н/о +3.8 0 0 976.5 975.3
22 17.03 СЗ 4
{7}
н/о н/о +3.2 0 0 977.6 976.3
23 17.03 СЗ 6
{9}
н/о н/о +2.4 -2 -2 978.8 977.5
00 18.03 С 6
{15}
н/о н/о +1.6 -3 -3 980.1 978.8
01 18.03 С 6
{9}
н/о н/о +1.8 -3 -3 981.8 980.5
02 18.03 С 8
{12}
н/о н/о +1.9 -3 -3 983.6 982.3
03 18.03 С 7
{13}
н/о н/о +1.8 -3 -3 985.3 984.0
04 18.03 С 8
{15}
н/о н/о +1.6 -4 -4 986.9 985.6
05 18.03 С 6
{11}
н/о н/о +1.4 -3 -3 988.8 987.5
06 18.03 С 7
{15}
н/о н/о +1.8 -3 -3 990.6 989.3 +1.4 +5.2 2
07 18.03 С 8
{11}
н/о н/о +2.2 -3 -3 992.1 990.8
08 18.03 С 8
{13}
н/о н/о +2.8 -2 -2 993.7 992.4
09 18.03
{13}
н/о н/о +3.9 995.2 993.9
10 18.03 С 8
{14}
н/о н/о +4.4 -0 -0 996.8 995.5
11 18.03
{16}
н/о н/о +5.1 998.2 996.9
12 18.03 С 9
{16}
н/о н/о +6.4 +2 +2 999.4 998.1
13 18.03 С 10
{16}
н/о н/о +6.4 +2 +2 1000.8 999.5
14 18.03 С 7
{16}
н/о н/о +7.1 +4 +4 1002.1 1000.8
15 18.03
{16}
н/о н/о +7.6 1003.3 1002.0
16 18.03 С 8
{13}
н/о н/о +6.4 +3 +3 1005.0 1003.7
17 18.03 С 7
{11}
н/о н/о +5.9 +2 +2 1006.7 1005.4
18 18.03 С 6
{16}
н/о н/о +4.3 +1 +1 1008.6 1007.3 +1.7 +7.8
19 18.03 С 4
{8}
н/о н/о +3.0 0 0 1010.1 1008.8
20 18.03 СВ 3
{7}
н/о н/о +2.8 0 0 1011.2 1009.9
21 18.03 С 1
{5}
н/о н/о +1.8 +2 +2 1012.5 1011.2
22 18.03 СЗ 3
{6}
н/о н/о +2.4 0 0 1013.7 1012.4
23 18.03 С 4
{7}
н/о н/о +2.5 -1 -1 1014.4 1013.1
00 19.03 С 5
{8}
н/о н/о +2.2 -2 -2 1015.1 1013.8
01 19.03 С 4
{6}
н/о н/о +2.2 -1 -1 1015.8 1014.5
02 19.03 СЗ 6
{7}
н/о н/о +2.1 -2 -2 1016.5 1015.2
03 19.03 СЗ 7
{8}
н/о н/о +2.1 -3 -3 1017.3 1016.0
04 19.03 СЗ 6
{9}
н/о н/о +1.6 -3 -3 1018.2 1016.9
05 19.03 СЗ 6
{8}
н/о н/о +1.8 -3 -3 1018.8 1017.5
06 19.03 СЗ 6
{9}
н/о н/о +1.8 -3 -3 1019.5 1018.2 +1.4 +4.3
07 19.03 СЗ 6
{8}
н/о н/о +1.9 -3 -3 1020.1 1018.8
08 19.03 СЗ 5
{6}
н/о н/о +2.5 -1 -1 1020.8 1019.5
09 19.03 СЗ 4
{6}
н/о н/о +3.1 0 0 1021.4 1020.1
10 19.03 СЗ 4
{7}
н/о н/о +4.4 +2 +2 1021.8 1020.5
11 19.03 З 3
{5}
н/о н/о +4.2 +2 +2 1021.9 1020.6
12 19.03 ЮЗ 3
{8}
н/о н/о +4.5 +3 +3 1022.1 1020.8
13 19.03 ЮЗ 4
{5}
н/о н/о +4.9 +2 +2 1021.9 1020.6
14 19.03 ЮЗ 6
{7}
н/о н/о +5.2 +2 +2 1021.7 1020.4
15 19.03 ЮЗ 6
{8}
н/о н/о +4.6 +1 +1 1021.8 1020.5
16 19.03 Ю 6
{7}
н/о н/о +4.7 +1 +1 1021.6 1020.3
17 19.03 Ю 6
{8}
н/о н/о +4.5 +1 +1 1021.4 1020.1
18 19.03 ЮЗ 7
{8}
н/о н/о +4.4 1021.4 1020.1 +1.7 +5.2
19 19.03 Ю 6
{8}
н/о н/о +4.3 +1 +1 1021.3 1020.0
20 19.03 Ю 7
{8}
н/о н/о +4.3 0 0 1020.6 1019.3
21 19.03 Ю 7
{9}
н/о н/о +4.4 0 0 1019.9 1018.6
22 19.03 ЮЗ 10
{11}
н/о н/о +4.9 0 0 1019.1 1017.8
23 19.03 ЮЗ 11
{16}
н/о н/о +4.6 -1 -1 1019.1 1017.8
00 20.03 ЮЗ 10
{16}
н/о н/о +4.7 -0 -0 1018.9 1017.6
01 20.03 ЮЗ 11
{13}
н/о н/о +4.7 -1 -1 1017.8 1016.5
02 20.03 ЮЗ 10
{14}
н/о н/о +4.9 0 0 1017.5 1016.2
03 20.03 ЮЗ 11
{14}
н/о н/о +5.0 -0 -0 1016.7 1015.4
04 20.03 ЮЗ 10
{13}
н/о н/о +5.0 1016.3 1015.0
05 20.03 ЮЗ 8
{13}
н/о н/о +5.0 +1 +1 1016.1 1014.8
06 20.03 ЮЗ 10
{14}
н/о н/о +4.6 1015.5 1014.2 +4.1 +5.2
07 20.03 З 5
{12}
н/о н/о +4.4 +1 +1 1016.6 1015.3
08 20.03 ЮЗ 4
{7}
н/о н/о +4.1 +1 +1 1016.8 1015.5
09 20.03 ЮЗ 3
{5}
н/о н/о +4.7 +3 +3 1017.6 1016.3
10 20.03 З 5
{6}
н/о н/о +6.0 +3 +3 1018.1 1016.8
11 20.03 З 8
{9}
н/о н/о +7.5 +4 +4 1018.7 1017.4
12 20.03 ЮЗ 7
{12}
н/о н/о +6.5 +3 +3 1019.6 1018.3
13 20.03 ЮЗ 10
{12}
н/о н/о +6.5 +2 +2 1019.3 1018.0
14 20.03 ЮЗ 10
{12}
н/о н/о +6.1 +2 +2 1019.7 1018.4
15 20.03 ЮЗ 10
{12}
н/о н/о +6.4 +2 +2 1020.0 1018.7
16 20.03 З 10
{12}
н/о н/о +6.9 +3 +3 1020.0 1018.7
17 20.03 З 9
{11}
н/о н/о +6.7 +3 +3 1021.0 1019.7
18 20.03 ЮЗ 9
{12}
н/о н/о +5.9 +2 +2 1021.3 1020.0 +4.0 +8.8
19 20.03 З 8
{10}
н/о н/о +6.5 +3 +3 1021.8 1020.5
20 20.03 ЮЗ 4
{9}
н/о н/о +5.7 +3 +3 1021.8 1020.5
21 20.03 ЮЗ 5
{11}
н/о н/о +5.6 +3 +3 1021.7 1020.4
22 20.03 ЮЗ 7
{9}
н/о н/о +6.2 +3 +3 1021.0 1019.7
23 20.03 З 8
{12}
н/о н/о +6.2 +2 +2 1021.1 1019.8
00 21.03 ЮЗ 7
{12}
н/о н/о +5.6 +2 +2 1020.8 1019.5
01 21.03 Ю 6
{10}
н/о н/о +5.3 +2 +2 1020.2 1018.9
02 21.03 ЮЗ 11
{13}
н/о н/о +5.0 -0 -0 1019.1 1017.8
03 21.03 ЮЗ 9
{13}
н/о н/о +5.4 +1 +1 1018.2 1016.9
04 21.03 ЮЗ 13
{15}
н/о н/о +5.7 1017.2 1015.9
05 21.03 ЮЗ 12
{16}
н/о н/о +5.4 0 0 1016.8 1015.5
06 21.03 ЮЗ 12
{16}
н/о н/о +5.3 1016.5 1015.2 +5.0 +7.4
07 21.03 ЮЗ 13
{15}
н/о н/о +5.2 -0 -0 1016.0 1014.7
08 21.03 ЮЗ 13
{17}
н/о н/о +5.2 -0 -0 1016.3 1015.0
09 21.03 ЮЗ 12
{15}
н/о н/о +5.4 0 0 1016.8 1015.5
10 21.03 ЮЗ 11
{14}
н/о н/о +5.6 +1 +1 1016.9 1015.6
11 21.03 ЮЗ 10
{13}
н/о н/о +6.1 +2 +2 1017.3 1016.0
12 21.03 ЮЗ 10
{17}
н/о н/о +6.2 +2 +2 1017.7 1016.4
13 21.03 ЮЗ 9
{12}
н/о н/о +6.6 +3 +3 1018.1 1016.8
14 21.03 ЮЗ 12
{14}
н/о н/о +6.9 +2 +2 1017.4 1016.1
15 21.03 ЮЗ 11
{13}
н/о н/о +6.7 +2 +2 1018.2 1016.9
17 21.03 СЗ 5
{10}
н/о н/о +8.6 +6 +6 1020.8 1019.5
18 21.03 СЗ 6
{14}
н/о н/о +7.6 +5 +5 1022.2 1020.9 +5.1 +9.8
19 21.03 СЗ 7
{10}
н/о н/о +8.7 +6 +6 1024.0 1022.7
20 21.03 СЗ 7
{11}
н/о н/о +8.2 +5 +5 1025.6 1024.3
21 21.03 СЗ 4
{8}
н/о н/о +6.8 +5 +5 1026.4 1025.1
22 21.03 С 4
{7}
н/о н/о +6.2 +4 +4 1028.2 1026.9
23 21.03 С 3
{6}
н/о н/о +5.6 +4 +4 1029.1 1027.8
01 22.03 СЗ 3
{4}
н/о н/о +3.9 +2 +2 1030.4 1029.1
02 22.03 СВ 1
{4}
н/о н/о +1.7 +2 +2 1030.2 1028.9
03 22.03 СВ 3
{4}
н/о н/о +0.8 -2 -2 1029.9 1028.6
04 22.03 СВ 3
{4}
н/о н/о +0.8 -2 -2 1030.4 1029.1
05 22.03 СВ 3
{4}
н/о н/о +0.9 -2 -2 1030.2 1028.9
06 22.03 СВ 3
{4}
н/о н/о +0.7 -2 -2 1030.8 1029.5 +0.4 +9.1 0.3
07 22.03 В 3
{4}
н/о н/о +1.5 -1 -1 1031.5 1030.2
08 22.03 В 3
{4}
н/о н/о +2.8 0 0 1031.2 1029.9
09 22.03 ЮВ 5
{8}
н/о н/о +5.4 +2 +2 1030.3 1029.0
10 22.03 Ю 10
{11}
н/о н/о +5.1 0 0 1029.4 1028.1
11 22.03 Ю 10
{13}
н/о н/о +4.5 -1 -1 1028.8 1027.5
12 22.03 Ю 11
{14}
н/о н/о +4.6 -1 -1 1028.2 1026.9
13 22.03 Ю 11
{14}
н/о н/о +4.9 -0 -0 1027.0 1025.7
14 22.03 Ю 11
{15}
н/о н/о +4.8 -0 -0 1026.0 1024.7
15 22.03 Ю 13
{16}
н/о н/о +4.9 -1 -1 1024.5 1023.2
16 22.03 Ю 12
{16}
н/о н/о +4.7 -1 -1 1023.5 1022.2

 

Местоположение метеостанции Маяк Stromtangen (Норвегия): широта 59.15 долгота 10.83 высота над уровнем моря 10 м.

В архиве по умолчанию представлена погода на Маяке Stromtangen за последнюю неделю. Архивные данные за месяц целиком и за предыдущие месяцы, начиная с января 2011 года, Вы можете получить, выбрав интересующий диапазон дат из раскрывающегося списка и нажав кнопку "Ввод!".


*Определитесь, кто Вы:
робот инопланетянин человек

Внимание! Время в таблицах - всемирное. Для получения местного времени необходимо прибавить поправку, которая равна 1 ч.

Смотрите также архив погоды в соседних городах и на ближайших метеорологических станциях:

Погода на Маяке Ferder (Норвегия) (22 км)
Погода в Сарпсборге (Норвегия) (22 км)
Погода в Рюгге (Норвегия) (26 км)
Погода в Мелсоме (Норвегия) (29 км)
Погода в Нордкостере (Швеция) (29 км)
Погода на Гуллхолмене (Норвегия) (34 км)
Погода на Маяке Svenner (Норвегия) (44 км)
Погода в Асе (Норвегия) (57 км)
Погода в Санде-Галлеберге (Норвегия) (63 км)
Погода на Вадероарна (Швеция) (65 км)

Пояснения к столбцам:

Ветер - указаны скорость ветра в м/с - средняя за 10 мин, порывы в срок и между сроками (в фигурных скобках) и направление, откуда дует ветер: С - северный, СВ - северо-восточный, В - восточный, ЮВ - юго-восточный, Ю - южный, ЮЗ - юго-западный, З - западный, СЗ - северо-западный.
Видимость - горизонтальная дальность видимости в метрах или километрах. При видимости от 1 до 10 км при отсутствии осадков обычно наблюдается дымка, при ухудшении видимости до 1 км и менее - туман. В сухую погоду видимость может ухудшаться дымом, пылью или мглою.
Явления - указаны атмосферные явления, наблюдавшиеся в срок или в последний час перед сроком; фигурными скобками обозначены явления, наблюдавшиеся между сроками (за 1-3 часа до срока); квадратными скобками обозначены град или гололедные отложения с указанием их диаметра в мм.
Облачность - указаны через наклонную черту общая и нижняя облачность в баллах и высота нижней границы облаков в метрах; квадратными скобками обозначены формы облаков: Ci - перистые, Cs - перисто-слоистые, Cc - перисто-кучевые, Ac - высококучевые, As - высокослоистые, Sc - слоисто-кучевые, Ns - слоисто-дождевые, Cu - кучевые, Cb - кучево-дождевые. Подробнее классификацию облаков см. в Атласе облаков (PDF).
T - Температура воздуха - температура, измеренная на высоте 2 м над землей.
Td - Температура точки росы - температура, при понижении до которой содержащийся в воздухе водяной пар достигнет насыщения.
f - Относительная влажность воздуха - влажноcть воздуха, измеренная на высоте 2 м над землей.
Te - Эффективная температура - температура, которую ощущает одетый по сезону человек в тени. Характеристика душности погоды. При расчете учитывается влияние влажности воздуха и скорости ветра на теплоощущения человека.
Tes - Эффективная температура на солнце - температура, которую ощущает человек, с поправкой на солнечный нагрев. Характеристика знойности погоды. Зависит от высоты солнца над горизонтом, облачности и скорости ветра. Ночью, в пасмурную погоду, а также при ветре 12 м/с и более поправка равна нулю.
P - Атмосферное давление - приведенное к уровню моря атмосферное давление.
Po - Атмосферное давление - измеренное на уровне метеостанции атмосферное давление.
Tmin - Минимальная температура - минимум температуры воздуха на высоте 2 м над землей.
Tmax - Максимальная температура - максимум температуры воздуха на высоте 2 м над землей.
R - Количество осадков - Количество выпавших осадков за период времени, мм. При наведении курсора мыши на число - период времени, за который выпало указанное количество осадков.
R24 - Количество осадков - Количество выпавших осадков за 24 часа, мм.
S - Снежный покров - Высота снежного покрова, см. При наведении курсора мыши на число - состояние снежного покрова и степень покрытия местности в баллах.